• In Netherlands
  • List of Countries
  • For 7 days
  • Water Temperature
  • Satellite Maps
  • Weather Map
  • Weather Widgets
  • user-avatar
    Login

    Hourly Weather Satif

    Today, 28 March, Tuesday

    Time Temperature Precipitation Wind Pressure Humidity
    00:00 +6°C° 0 mm 1 mps 674 mmHg 94%
    01:00 +6°C° 0 mm 1 mps 674 mmHg 94%
    02:00 +6°C° 0 mm 1 mps 674 mmHg 95%
    03:00 +5°C° 0 mm 1 mps 673 mmHg 95%
    04:00 +5°C° 0 mm 1 mps 674 mmHg 94%
    05:00 +6°C° 0 mm 1 mps 674 mmHg 93%
    06:00 +6°C° 0 mm 1 mps 674 mmHg 92%
    07:00 +8°C° 0 mm 1 mps 675 mmHg 77%
    08:00 +11°C° 0 mm 1 mps 676 mmHg 61%
    09:00 +13°C° 0 mm 2 mps 676 mmHg 46%
    10:00 +14°C° 0 mm 2 mps 677 mmHg 42%
    11:00 +14°C° 0 mm 3 mps 677 mmHg 38%
    12:00 +17°C° 0 mm 3 mps 677 mmHg 34%
    13:00 +15°C° 0 mm 4 mps 677 mmHg 37%
    14:00 +15°C° 0 mm 4 mps 676 mmHg 40%
    15:00 +15°C° 0 mm 4 mps 676 mmHg 43%
    16:00 +12°C° 0 mm 4 mps 676 mmHg 54%
    17:00 +10°C° 0 mm 3 mps 676 mmHg 65%
    18:00 +8°C° 0 mm 2 mps 675 mmHg 75%
    19:00 +7°C° 0 mm 2 mps 676 mmHg 81%
    20:00 +6°C° 0 mm 2 mps 676 mmHg 87%
    21:00 +5°C° 0 mm 2 mps 676 mmHg 93%
    22:00 +5°C° 0 mm 2 mps 676 mmHg 93%
    23:00 +5°C° 0 mm 2 mps 676 mmHg 93%

    Tomorrow, 29 March, Wednesday

    Time Temperature Precipitation Wind Pressure Humidity
    00:00 +5°C° 0 mm 1 mps 676 mmHg 94%
    01:00 +4°C° 0 mm 2 mps 676 mmHg 93%
    02:00 +4°C° 0 mm 2 mps 676 mmHg 93%
    03:00 +4°C° 0 mm 2 mps 676 mmHg 92%
    04:00 +4°C° 0 mm 2 mps 676 mmHg 92%
    05:00 +4°C° 0 mm 2 mps 676 mmHg 91%
    06:00 +4°C° 0 mm 2 mps 676 mmHg 90%
    07:00 +6°C° 0 mm 2 mps 677 mmHg 77%
    08:00 +8°C° 0 mm 2 mps 677 mmHg 65%
    09:00 +10°C° 0 mm 2 mps 678 mmHg 52%
    10:00 +11°C° 0 mm 3 mps 678 mmHg 46%
    11:00 +12°C° 0 mm 3 mps 678 mmHg 39%
    12:00 +14°C° 0 mm 4 mps 678 mmHg 33%
    13:00 +14°C° 0 mm 4 mps 678 mmHg 33%
    14:00 +14°C° 0 mm 4 mps 678 mmHg 32%
    15:00 +13°C° 0 mm 4 mps 677 mmHg 31%
    16:00 +11°C° 0 mm 3 mps 677 mmHg 41%
    17:00 +9°C° 0 mm 3 mps 676 mmHg 50%
    18:00 +6°C° 0 mm 2 mps 676 mmHg 60%
    19:00 +5°C° 0 mm 2 mps 676 mmHg 67%
    20:00 +4°C° 0 mm 1 mps 676 mmHg 74%
    21:00 +3°C° 0 mm 1 mps 676 mmHg 81%
    22:00 +2°C° 0 mm 1 mps 676 mmHg 82%
    23:00 +2°C° 0 mm 1 mps 676 mmHg 82%

    Day after tomorrow, 30 March, Thursday

    Time Temperature Precipitation Wind Pressure Humidity
    00:00 +2°C° 0 mm 1 mps 676 mmHg 82%
    01:00 +1°C° 0 mm 1 mps 675 mmHg 81%
    02:00 +1°C° 0 mm 1 mps 675 mmHg 79%
    03:00 +1°C° 0 mm 1 mps 675 mmHg 77%
    04:00 +1°C° 0 mm 1 mps 675 mmHg 74%
    05:00 +2°C° 0 mm 1 mps 675 mmHg 71%
    06:00 +2°C° 0 mm 1 mps 675 mmHg 68%
    07:00 +6°C° 0 mm 1 mps 677 mmHg 54%
    08:00 +10°C° 0 mm 1 mps 678 mmHg 40%
    09:00 +15°C° 0 mm 1 mps 679 mmHg 25%
    10:00 +16°C° 0 mm 1 mps 679 mmHg 23%
    11:00 +19°C° 0 mm 1 mps 679 mmHg 21%
    12:00 +20°C° 0 mm 1 mps 680 mmHg 18%
    13:00 +19°C° 0 mm 2 mps 679 mmHg 19%
    14:00 +19°C° 0 mm 2 mps 678 mmHg 20%
    15:00 +19°C° 0 mm 2 mps 678 mmHg 22%
    16:00 +16°C° 0 mm 2 mps 677 mmHg 33%
    17:00 +12°C° 0 mm 2 mps 676 mmHg 44%
    18:00 +8°C° 0 mm 2 mps 675 mmHg 56%
    19:00 +7°C° 0 mm 2 mps 676 mmHg 58%
    20:00 +7°C° 0 mm 2 mps 676 mmHg 60%
    21:00 +6°C° 0 mm 2 mps 676 mmHg 63%
    22:00 +6°C° 0 mm 2 mps 676 mmHg 61%
    23:00 +6°C° 0 mm 2 mps 675 mmHg 60%

    31 March, Friday

    Time Temperature Precipitation Wind Pressure Humidity
    00:00 +6°C° 0 mm 2 mps 675 mmHg 58%
    01:00 +6°C° 0 mm 2 mps 675 mmHg 58%
    02:00 +6°C° 0 mm 2 mps 675 mmHg 58%
    03:00 +6°C° 0 mm 2 mps 675 mmHg 58%
    04:00 +6°C° 0 mm 2 mps 675 mmHg 58%
    05:00 +7°C° 0 mm 2 mps 675 mmHg 57%
    06:00 +7°C° 0 mm 2 mps 675 mmHg 57%
    07:00 +10°C° 0 mm 3 mps 675 mmHg 48%
    08:00 +13°C° 0 mm 3 mps 676 mmHg 39%
    09:00 +17°C° 0 mm 4 mps 677 mmHg 31%
    10:00 +18°C° 0 mm 4 mps 677 mmHg 28%
    11:00 +20°C° 0 mm 4 mps 677 mmHg 24%
    12:00 +21°C° 0 mm 3 mps 677 mmHg 21%
    13:00 +21°C° 0 mm 3 mps 677 mmHg 22%
    14:00 +21°C° 0 mm 3 mps 676 mmHg 23%
    15:00 +21°C° 0 mm 3 mps 676 mmHg 23%
    16:00 +18°C° 0 mm 3 mps 675 mmHg 31%
    17:00 +16°C° 0 mm 2 mps 674 mmHg 38%
    18:00 +13°C° 0 mm 2 mps 674 mmHg 46%
    19:00 +13°C° 0 mm 1 mps 674 mmHg 47%
    20:00 +12°C° 0 mm 1 mps 674 mmHg 48%
    21:00 +11°C° 0 mm 1 mps 674 mmHg 50%
    22:00 +11°C° 0 mm 1 mps 674 mmHg 49%
    23:00 +11°C° 0 mm 1 mps 674 mmHg 48%

    1 April, Saturday

    Time Temperature Precipitation Wind Pressure Humidity
    00:00 +10°C° 0 mm 2 mps 673 mmHg 48%
    01:00 +11°C° 0.1 mm 1 mps 673 mmHg 51%
    02:00 +10°C° 0.1 mm 1 mps 673 mmHg 54%
    03:00 +10°C° 0.1 mm 1 mps 673 mmHg 56%
    04:00 +10°C° 0.1 mm 1 mps 673 mmHg 58%
    05:00 +9°C° 0.1 mm 1 mps 672 mmHg 60%
    06:00 +9°C° 0.1 mm 1 mps 672 mmHg 62%
    07:00 +12°C° 0 mm 1 mps 673 mmHg 55%
    08:00 +14°C° 0 mm 1 mps 674 mmHg 49%
    09:00 +16°C° 0 mm 1 mps 675 mmHg 42%
    10:00 +17°C° 0.1 mm 2 mps 674 mmHg 39%
    11:00 +18°C° 0.1 mm 2 mps 674 mmHg 37%
    12:00 +19°C° 0.1 mm 3 mps 674 mmHg 34%
    13:00 +19°C° 0.2 mm 3 mps 673 mmHg 37%
    14:00 +18°C° 0.2 mm 3 mps 673 mmHg 40%
    15:00 +18°C° 0.2 mm 3 mps 672 mmHg 42%
    16:00 +16°C° 0.5 mm 3 mps 672 mmHg 53%
    17:00 +13°C° 0.5 mm 3 mps 671 mmHg 64%
    18:00 +10°C° 0.5 mm 2 mps 671 mmHg 75%
    19:00 +10°C° 0.7 mm 2 mps 671 mmHg 79%
    20:00 +9°C° 0.7 mm 2 mps 671 mmHg 82%
    21:00 +9°C° 0.7 mm 1 mps 671 mmHg 86%
    22:00 +8°C° 0.3 mm 1 mps 671 mmHg 87%
    23:00 +7°C° 0.3 mm 1 mps 671 mmHg 88%

    2 April, Sunday

    Time Temperature Precipitation Wind Pressure Humidity
    00:00 +6°C° 0.3 mm 1 mps 670 mmHg 90%
    01:00 +5°C° 0 mm 2 mps 670 mmHg 89%
    02:00 +4°C° 0 mm 2 mps 670 mmHg 89%
    03:00 +4°C° 0 mm 2 mps 669 mmHg 89%
    04:00 +4°C° 0.1 mm 2 mps 669 mmHg 88%
    05:00 +4°C° 0.1 mm 2 mps 669 mmHg 88%
    06:00 +4°C° 0.1 mm 2 mps 670 mmHg 88%
    07:00 +5°C° 0.2 mm 2 mps 670 mmHg 83%
    08:00 +5°C° 0.2 mm 3 mps 671 mmHg 78%
    09:00 +7°C° 0.2 mm 4 mps 671 mmHg 73%
    10:00 +7°C° 0.5 mm 4 mps 671 mmHg 72%
    11:00 +7°C° 0.5 mm 4 mps 671 mmHg 70%
    12:00 +8°C° 0.5 mm 5 mps 671 mmHg 69%
    13:00 +8°C° 0.3 mm 5 mps 671 mmHg 67%
    14:00 +8°C° 0.3 mm 5 mps 671 mmHg 65%
    15:00 +8°C° 0.3 mm 4 mps 671 mmHg 64%
    16:00 +7°C° 0.1 mm 4 mps 671 mmHg 69%
    17:00 +7°C° 0.1 mm 3 mps 671 mmHg 73%
    18:00 +6°C° 0.1 mm 2 mps 670 mmHg 78%
    19:00 +5°C° 0 mm 2 mps 671 mmHg 82%
    20:00 +4°C° 0 mm 2 mps 671 mmHg 87%
    21:00 +3°C° 0 mm 2 mps 671 mmHg 91%
    22:00 +3°C° 0.1 mm 2 mps 671 mmHg 92%
    23:00 +3°C° 0.1 mm 2 mps 671 mmHg 92%
    Show more